GEFSNE_prec_meanprec_216.txt.gz
QPF
0.05 0.05 0.04 0.04 0.04 0.04 0.03 0.04 0.05 0.04 0.04 0.04 0.04 0.03 0.03 0.02 0.02 0.02 0.03 0.03 0.02 0.02 0.01 0.01 0.01 0.01 0.01 0.01 0.02 0.06 0.09 0.08 0.07 0.05 0.05 0.06 0.06 0.06
0.07 0.07 0.06 0.06 0.06 0.05 0.03 0.03 0.04 0.05 0.05 0.04 0.04 0.04 0.03 0.02 0.02 0.01 0.01 0.02 0.02 0.02 0.02 0.01 0.01 0.01 0.01 0.01 0.01 0.03 0.07 0.09 0.07 0.06 0.05 0.05 0.05 0.06
0.05 0.05 0.05 0.06 0.06 0.05 0.04 0.04 0.04 0.05 0.06 0.06 0.06 0.05 0.04 0.03 0.02 0.02 0.01 0.01 0.02 0.02 0.02 0.01 0.01 0.01 0.01 0.01 0.01 0.02 0.03 0.07 0.08 0.07 0.05 0.05 0.05 0.05
0.04 0.04 0.04 0.03 0.03 0.04 0.03 0.03 0.03 0.03 0.04 0.04 0.04 0.03 0.03 0.02 0.02 0.02 0.01 0.01 0.02 0.01 0.01 0.01 0.01 0.01 0.01 0.01 0.01 0.01 0.02 0.03 0.06 0.07 0.06 0.05 0.05 0.05
0.03 0.04 0.04 0.04 0.03 0.03 0.03 0.03 0.02 0.02 0.02 0.03 0.03 0.04 0.03 0.02 0.02 0.02 0.02 0.02 0.01 0.01 0.01 0.01 0.01 0.01 0.01 0.01 0.01 0.01 0.02 0.02 0.03 0.05 0.06 0.06 0.05 0.05
0.03 0.03 0.03 0.04 0.04 0.04 0.05 0.05 0.03 0.03 0.03 0.03 0.03 0.03 0.03 0.03 0.03 0.03 0.02 0.02 0.02 0.01 0.01 0.01 0.01 0.01 0.01 0.01 0.01 0.01 0.02 0.03 0.04 0.06 0.06 0.06 0.05 0.05
0.02 0.03 0.03 0.05 0.04 0.03 0.03 0.04 0.05 0.05 0.06 0.05 0.04 0.04 0.04 0.04 0.03 0.03 0.03 0.04 0.03 0.02 0.02 0.02 0.01 0.01 0.01 0.01 0.01 0.01 0.01 0.02 0.02 0.03 0.05 0.06 0.07 0.06
0.02 0.02 0.02 0.03 0.03 0.02 0.02 0.02 0.03 0.03 0.04 0.05 0.06 0.05 0.05 0.04 0.03 0.02 0.03 0.04 0.05 0.04 0.04 0.04 0.03 0.03 0.02 0.02 0.02 0.01 0.01 0.02 0.02 0.02 0.03 0.05 0.06 0.06
0.02 0.01 0.01 0.01 0.01 0.01 0.01 0.01 0.02 0.02 0.02 0.04 0.04 0.04 0.04 0.05 0.05 0.04 0.04 0.05 0.05 0.05 0.05 0.06 0.06 0.05 0.03 0.02 0.01 0.01 0.01 0.02 0.04 0.04 0.05 0.05 0.07 0.07
0.03 0.02 0.02 0.01 0.01 0.01 0.01 0.02 0.02 0.02 0.02 0.02 0.03 0.04 0.04 0.05 0.07 0.06 0.06 0.06 0.06 0.06 0.06 0.06 0.07 0.07 0.05 0.04 0.03 0.02 0.02 0.02 0.04 0.05 0.08 0.09 0.10 0.11
0.04 0.03 0.02 0.02 0.01 0.01 0.01 0.02 0.02 0.03 0.01 0.01 0.01 0.01 0.01 0.02 0.03 0.05 0.05 0.06 0.06 0.07 0.06 0.06 0.07 0.08 0.07 0.05 0.04 0.03 0.03 0.02 0.02 0.03 0.04 0.06 0.09 0.11
0.04 0.03 0.02 0.02 0.01 0.02 0.02 0.02 0.01 0.02 0.01 0.01 0.02 0.02 0.02 0.02 0.01 0.02 0.03 0.04 0.04 0.04 0.04 0.05 0.05 0.07 0.07 0.04 0.03 0.02 0.02 0.03 0.03 0.02 0.03 0.03 0.04 0.05
0.02 0.02 0.01 0.01 0.01 0.01 0.01 0.02 0.01 0.01 0.01 0.01 0.02 0.02 0.03 0.03 0.03 0.02 0.03 0.03 0.03 0.03 0.03 0.03 0.04 0.05 0.07 0.05 0.04 0.03 0.03 0.03 0.02 0.02 0.02 0.02 0.02 0.03
0.02 0.01 0.01 0.01 0.01 0.01 0.01 0.01 0.01 0.01 0.01 0.02 0.02 0.02 0.02 0.02 0.02 0.02 0.03 0.03 0.02 0.02 0.03 0.03 0.03 0.04 0.05 0.06 0.04 0.04 0.04 0.04 0.03 0.03 0.03 0.03 0.03 0.03
0.02 0.02 0.02 0.01 0.00 0.00 0.00 0.00 0.01 0.01 0.02 0.02 0.01 0.01 0.02 0.02 0.02 0.02 0.03 0.03 0.02 0.01 0.02 0.03 0.03 0.04 0.06 0.07 0.05 0.05 0.06 0.05 0.04 0.04 0.04 0.04 0.05 0.04
0.02 0.01 0.01 0.00 0.00 0.00 0.01 0.01 0.01 0.01 0.02 0.01 0.01 0.01 0.01 0.01 0.02 0.02 0.02 0.03 0.03 0.03 0.03 0.03 0.04 0.06 0.09 0.10 0.09 0.07 0.07 0.07 0.06 0.05 0.05 0.05 0.06 0.05
0.02 0.01 0.01 0.01 0.01 0.01 0.01 0.01 0.02 0.02 0.02 0.02 0.02 0.02 0.02 0.02 0.02 0.02 0.03 0.04 0.05 0.05 0.05 0.05 0.06 0.07 0.09 0.11 0.09 0.07 0.06 0.06 0.06 0.06 0.06 0.05 0.07 0.06
0.01 0.01 0.01 0.01 0.01 0.01 0.01 0.01 0.02 0.03 0.03 0.03 0.02 0.02 0.02 0.02 0.02 0.03 0.04 0.05 0.05 0.04 0.04 0.04 0.04 0.05 0.06 0.09 0.06 0.03 0.03 0.04 0.05 0.06 0.07 0.05 0.06 0.07
0.01 0.02 0.02 0.02 0.02 0.02 0.01 0.01 0.02 0.03 0.03 0.03 0.03 0.02 0.02 0.03 0.03 0.03 0.03 0.03 0.05 0.04 0.03 0.03 0.03 0.04 0.06 0.09 0.07 0.03 0.02 0.03 0.05 0.06 0.08 0.06 0.05 0.05
0.01 0.02 0.02 0.01 0.02 0.02 0.01 0.02 0.02 0.03 0.03 0.02 0.02 0.02 0.02 0.02 0.02 0.02 0.02 0.03 0.03 0.04 0.05 0.04 0.04 0.05 0.07 0.08 0.06 0.04 0.02 0.03 0.04 0.06 0.09 0.07 0.05 0.05
0.03 0.03 0.03 0.03 0.03 0.02 0.02 0.02 0.02 0.02 0.02 0.02 0.02 0.02 0.02 0.01 0.01 0.01 0.02 0.02 0.03 0.03 0.04 0.04 0.03 0.04 0.06 0.06 0.04 0.04 0.04 0.02 0.03 0.05 0.07 0.07 0.06 0.05
0.03 0.03 0.02 0.02 0.02 0.02 0.01 0.01 0.01 0.01 0.02 0.03 0.03 0.03 0.02 0.02 0.02 0.01 0.02 0.02 0.03 0.03 0.03 0.03 0.03 0.06 0.08 0.06 0.04 0.04 0.04 0.03 0.02 0.04 0.05 0.05 0.04 0.04
0.01 0.01 0.01 0.01 0.01 0.02 0.01 0.01 0.01 0.02 0.03 0.03 0.04 0.04 0.03 0.02 0.02 0.02 0.03 0.03 0.03 0.03 0.03 0.03 0.05 0.08 0.08 0.06 0.04 0.04 0.04 0.03 0.03 0.04 0.05 0.05 0.04 0.03

GEFSNE_prec_meanprec_222.txt.gz
QPF
0.07 0.07 0.07 0.07 0.08 0.09 0.09 0.09 0.08 0.07 0.07 0.07 0.06 0.05 0.05 0.05 0.06 0.05 0.05 0.04 0.03 0.03 0.02 0.02 0.02 0.03 0.02 0.01 0.01 0.01 0.01 0.03 0.05 0.05 0.05 0.05 0.05 0.05
0.06 0.07 0.07 0.08 0.08 0.09 0.11 0.10 0.09 0.07 0.07 0.06 0.05 0.05 0.06 0.06 0.07 0.06 0.05 0.04 0.03 0.02 0.01 0.02 0.02 0.02 0.02 0.01 0.01 0.01 0.01 0.01 0.02 0.04 0.05 0.04 0.04 0.05
0.06 0.06 0.06 0.07 0.08 0.09 0.10 0.09 0.09 0.09 0.09 0.07 0.06 0.06 0.07 0.07 0.05 0.04 0.04 0.03 0.02 0.02 0.02 0.02 0.02 0.02 0.02 0.01 0.01 0.01 0.01 0.01 0.01 0.02 0.03 0.04 0.03 0.03
0.07 0.07 0.06 0.06 0.06 0.08 0.09 0.09 0.08 0.08 0.08 0.07 0.06 0.05 0.06 0.06 0.05 0.05 0.03 0.02 0.02 0.02 0.02 0.02 0.02 0.02 0.02 0.02 0.01 0.01 0.01 0.01 0.02 0.02 0.02 0.03 0.04 0.03
0.07 0.07 0.07 0.06 0.05 0.07 0.09 0.09 0.07 0.07 0.07 0.07 0.06 0.05 0.05 0.05 0.06 0.05 0.05 0.05 0.02 0.02 0.01 0.01 0.02 0.02 0.02 0.02 0.01 0.01 0.01 0.00 0.01 0.02 0.02 0.03 0.03 0.03
0.05 0.05 0.05 0.05 0.06 0.07 0.07 0.07 0.05 0.06 0.05 0.05 0.05 0.04 0.05 0.05 0.05 0.05 0.05 0.05 0.04 0.02 0.02 0.01 0.01 0.01 0.02 0.02 0.02 0.01 0.01 0.01 0.00 0.01 0.02 0.02 0.03 0.03
0.03 0.03 0.03 0.04 0.04 0.05 0.03 0.04 0.04 0.04 0.05 0.04 0.04 0.05 0.05 0.06 0.05 0.05 0.05 0.06 0.05 0.04 0.03 0.02 0.02 0.02 0.01 0.01 0.01 0.01 0.01 0.01 0.01 0.01 0.01 0.02 0.02 0.03
0.03 0.04 0.03 0.04 0.05 0.05 0.03 0.03 0.03 0.02 0.02 0.03 0.03 0.04 0.05 0.06 0.06 0.05 0.05 0.06 0.05 0.05 0.05 0.04 0.03 0.03 0.03 0.03 0.02 0.01 0.01 0.01 0.01 0.01 0.01 0.01 0.02 0.02
0.04 0.05 0.04 0.04 0.04 0.04 0.04 0.03 0.02 0.02 0.02 0.03 0.03 0.03 0.04 0.05 0.05 0.05 0.06 0.06 0.05 0.05 0.06 0.06 0.06 0.06 0.04 0.02 0.02 0.01 0.01 0.01 0.01 0.01 0.01 0.01 0.02 0.03
0.06 0.06 0.06 0.04 0.04 0.04 0.04 0.03 0.02 0.01 0.01 0.02 0.03 0.03 0.02 0.03 0.04 0.04 0.05 0.05 0.05 0.04 0.06 0.06 0.06 0.07 0.05 0.04 0.02 0.01 0.01 0.01 0.01 0.02 0.02 0.02 0.02 0.02
0.07 0.06 0.06 0.05 0.05 0.05 0.04 0.03 0.02 0.02 0.01 0.01 0.02 0.02 0.02 0.02 0.02 0.03 0.04 0.04 0.04 0.04 0.04 0.05 0.05 0.07 0.06 0.06 0.04 0.02 0.01 0.01 0.01 0.01 0.01 0.02 0.03 0.03
0.07 0.07 0.06 0.05 0.06 0.07 0.05 0.03 0.02 0.02 0.01 0.01 0.02 0.01 0.01 0.02 0.01 0.02 0.03 0.04 0.03 0.03 0.03 0.04 0.05 0.06 0.06 0.06 0.05 0.03 0.02 0.01 0.01 0.01 0.01 0.02 0.02 0.03
0.06 0.08 0.08 0.08 0.07 0.05 0.04 0.03 0.02 0.02 0.03 0.02 0.02 0.02 0.01 0.02 0.02 0.02 0.03 0.04 0.04 0.03 0.03 0.04 0.05 0.06 0.07 0.06 0.06 0.05 0.04 0.03 0.02 0.02 0.02 0.02 0.02 0.03
0.06 0.09 0.07 0.07 0.05 0.02 0.01 0.01 0.02 0.03 0.03 0.03 0.02 0.02 0.01 0.02 0.02 0.02 0.03 0.04 0.04 0.03 0.03 0.04 0.05 0.06 0.06 0.06 0.07 0.06 0.05 0.04 0.04 0.03 0.03 0.02 0.03 0.03
0.06 0.06 0.04 0.03 0.02 0.01 0.01 0.02 0.02 0.02 0.02 0.02 0.02 0.02 0.02 0.02 0.02 0.03 0.04 0.05 0.04 0.03 0.03 0.03 0.04 0.05 0.05 0.06 0.07 0.07 0.05 0.05 0.05 0.05 0.04 0.04 0.04 0.03
0.04 0.04 0.03 0.03 0.02 0.02 0.02 0.02 0.02 0.02 0.02 0.02 0.02 0.02 0.02 0.03 0.03 0.04 0.04 0.04 0.04 0.03 0.03 0.03 0.03 0.04 0.05 0.05 0.07 0.07 0.06 0.06 0.06 0.06 0.06 0.05 0.05 0.04
0.04 0.03 0.02 0.02 0.02 0.03 0.03 0.02 0.02 0.02 0.03 0.03 0.03 0.03 0.03 0.04 0.04 0.04 0.05 0.04 0.05 0.05 0.04 0.04 0.05 0.05 0.05 0.05 0.05 0.05 0.05 0.05 0.04 0.05 0.06 0.06 0.05 0.04
0.02 0.03 0.03 0.04 0.04 0.05 0.05 0.05 0.05 0.05 0.06 0.06 0.06 0.06 0.07 0.07 0.06 0.06 0.06 0.05 0.05 0.04 0.03 0.03 0.04 0.04 0.04 0.04 0.04 0.04 0.04 0.03 0.03 0.04 0.05 0.05 0.05 0.03
0.03 0.04 0.05 0.05 0.05 0.05 0.06 0.05 0.05 0.05 0.05 0.05 0.05 0.05 0.05 0.05 0.05 0.05 0.04 0.03 0.03 0.03 0.02 0.02 0.03 0.03 0.03 0.03 0.03 0.02 0.03 0.04 0.03 0.04 0.05 0.06 0.05 0.04
0.02 0.03 0.04 0.04 0.04 0.04 0.04 0.05 0.04 0.04 0.04 0.04 0.03 0.03 0.04 0.04 0.04 0.03 0.03 0.03 0.03 0.03 0.02 0.03 0.04 0.04 0.04 0.04 0.04 0.03 0.03 0.04 0.04 0.04 0.04 0.06 0.07 0.05
0.03 0.04 0.04 0.04 0.04 0.04 0.04 0.04 0.04 0.04 0.04 0.03 0.03 0.02 0.03 0.04 0.04 0.03 0.03 0.03 0.03 0.03 0.03 0.02 0.03 0.03 0.03 0.03 0.04 0.04 0.04 0.04 0.03 0.04 0.04 0.05 0.07 0.07
0.03 0.03 0.03 0.03 0.03 0.03 0.03 0.04 0.04 0.04 0.03 0.03 0.03 0.03 0.03 0.04 0.04 0.04 0.03 0.03 0.03 0.03 0.02 0.02 0.02 0.03 0.04 0.04 0.04 0.05 0.06 0.06 0.04 0.03 0.04 0.05 0.05 0.06
0.03 0.03 0.03 0.02 0.02 0.02 0.03 0.03 0.03 0.03 0.02 0.02 0.02 0.02 0.02 0.03 0.04 0.03 0.03 0.04 0.03 0.03 0.03 0.03 0.03 0.04 0.05 0.05 0.05 0.05 0.06 0.06 0.04 0.04 0.04 0.06 0.07 0.05

GEFSNE_prec_meanprec_228.txt.gz
QPF
0.05 0.04 0.04 0.03 0.03 0.04 0.05 0.06 0.07 0.05 0.03 0.03 0.04 0.03 0.03 0.03 0.03 0.04 0.03 0.03 0.02 0.02 0.02 0.03 0.03 0.04 0.06 0.05 0.04 0.03 0.02 0.02 0.02 0.03 0.03 0.04 0.05 0.06
0.05 0.04 0.03 0.03 0.04 0.04 0.04 0.04 0.05 0.05 0.04 0.03 0.03 0.03 0.03 0.02 0.03 0.03 0.04 0.04 0.04 0.04 0.03 0.02 0.02 0.03 0.05 0.05 0.03 0.02 0.02 0.02 0.02 0.02 0.03 0.04 0.05 0.05
0.05 0.05 0.05 0.04 0.03 0.04 0.04 0.04 0.04 0.04 0.04 0.04 0.03 0.03 0.03 0.02 0.02 0.03 0.03 0.03 0.03 0.03 0.03 0.02 0.02 0.02 0.03 0.05 0.04 0.03 0.03 0.03 0.02 0.02 0.02 0.04 0.05 0.05
0.04 0.05 0.06 0.05 0.05 0.05 0.05 0.05 0.05 0.05 0.05 0.04 0.04 0.04 0.04 0.04 0.02 0.02 0.02 0.02 0.02 0.02 0.02 0.01 0.01 0.01 0.02 0.03 0.04 0.03 0.03 0.03 0.03 0.03 0.02 0.03 0.03 0.04
0.04 0.04 0.05 0.05 0.04 0.05 0.05 0.05 0.05 0.05 0.06 0.05 0.06 0.05 0.05 0.05 0.03 0.03 0.03 0.04 0.03 0.02 0.02 0.02 0.02 0.01 0.01 0.02 0.02 0.02 0.02 0.03 0.02 0.02 0.02 0.02 0.03 0.04
0.02 0.03 0.03 0.03 0.03 0.03 0.03 0.04 0.03 0.03 0.05 0.06 0.07 0.07 0.06 0.06 0.04 0.04 0.04 0.04 0.05 0.04 0.03 0.02 0.02 0.02 0.02 0.02 0.01 0.02 0.02 0.02 0.02 0.02 0.02 0.02 0.02 0.03
0.02 0.02 0.02 0.02 0.02 0.02 0.02 0.02 0.02 0.02 0.03 0.05 0.07 0.07 0.06 0.06 0.05 0.04 0.04 0.04 0.06 0.07 0.06 0.04 0.02 0.01 0.02 0.02 0.02 0.02 0.02 0.02 0.02 0.02 0.02 0.02 0.02 0.02
0.01 0.01 0.01 0.02 0.01 0.01 0.01 0.01 0.02 0.02 0.02 0.03 0.04 0.05 0.04 0.04 0.04 0.03 0.04 0.04 0.06 0.06 0.06 0.07 0.04 0.02 0.01 0.02 0.02 0.02 0.02 0.03 0.03 0.02 0.02 0.02 0.03 0.02
0.01 0.01 0.01 0.01 0.01 0.01 0.01 0.02 0.02 0.02 0.02 0.02 0.02 0.02 0.03 0.03 0.04 0.04 0.04 0.04 0.04 0.04 0.04 0.04 0.04 0.03 0.01 0.01 0.01 0.01 0.02 0.02 0.02 0.03 0.02 0.02 0.03 0.03
0.02 0.01 0.01 0.01 0.01 0.01 0.02 0.03 0.03 0.03 0.03 0.02 0.01 0.01 0.02 0.03 0.04 0.04 0.04 0.04 0.04 0.04 0.03 0.03 0.03 0.03 0.02 0.01 0.01 0.02 0.02 0.02 0.02 0.02 0.02 0.02 0.02 0.03
0.02 0.01 0.02 0.01 0.01 0.02 0.02 0.04 0.03 0.02 0.03 0.02 0.02 0.02 0.02 0.02 0.03 0.03 0.03 0.02 0.02 0.02 0.02 0.01 0.01 0.02 0.02 0.02 0.02 0.02 0.01 0.01 0.02 0.02 0.01 0.01 0.02 0.03
0.02 0.02 0.02 0.02 0.02 0.03 0.04 0.04 0.02 0.02 0.02 0.02 0.02 0.02 0.02 0.02 0.03 0.02 0.01 0.01 0.01 0.01 0.01 0.01 0.01 0.01 0.01 0.02 0.02 0.02 0.01 0.01 0.01 0.01 0.02 0.02 0.01 0.02
0.02 0.02 0.02 0.02 0.02 0.04 0.05 0.04 0.02 0.02 0.02 0.01 0.01 0.02 0.02 0.02 0.02 0.01 0.01 0.01 0.01 0.01 0.00 0.00 0.01 0.01 0.01 0.01 0.02 0.02 0.02 0.02 0.01 0.01 0.01 0.01 0.01 0.01
0.03 0.03 0.04 0.04 0.04 0.05 0.04 0.03 0.02 0.02 0.02 0.02 0.02 0.02 0.02 0.02 0.02 0.02 0.01 0.01 0.01 0.01 0.01 0.01 0.01 0.01 0.02 0.02 0.01 0.02 0.02 0.02 0.02 0.03 0.03 0.03 0.03 0.02
0.06 0.06 0.06 0.07 0.05 0.04 0.04 0.04 0.04 0.04 0.04 0.03 0.03 0.02 0.02 0.02 0.02 0.02 0.02 0.02 0.02 0.02 0.02 0.02 0.02 0.02 0.02 0.02 0.02 0.03 0.03 0.03 0.02 0.02 0.03 0.05 0.04 0.04
0.05 0.07 0.08 0.07 0.06 0.06 0.06 0.05 0.05 0.04 0.04 0.03 0.02 0.02 0.02 0.02 0.02 0.02 0.02 0.02 0.02 0.02 0.02 0.03 0.04 0.04 0.04 0.04 0.04 0.04 0.05 0.05 0.04 0.04 0.05 0.04 0.04 0.04
0.02 0.05 0.06 0.04 0.03 0.03 0.03 0.03 0.03 0.03 0.03 0.02 0.02 0.02 0.02 0.01 0.01 0.01 0.01 0.02 0.02 0.02 0.02 0.03 0.04 0.04 0.04 0.04 0.04 0.05 0.05 0.07 0.07 0.07 0.08 0.08 0.07 0.06
0.03 0.04 0.03 0.03 0.02 0.02 0.02 0.02 0.02 0.02 0.02 0.02 0.01 0.01 0.01 0.01 0.02 0.02 0.02 0.02 0.02 0.02 0.02 0.02 0.02 0.03 0.04 0.03 0.03 0.03 0.04 0.04 0.06 0.06 0.07 0.08 0.08 0.07
0.03 0.03 0.02 0.01 0.01 0.01 0.01 0.01 0.01 0.01 0.01 0.01 0.01 0.01 0.02 0.02 0.02 0.02 0.02 0.03 0.02 0.02 0.02 0.02 0.02 0.03 0.03 0.02 0.01 0.02 0.02 0.02 0.03 0.04 0.05 0.05 0.06 0.06
0.02 0.01 0.01 0.01 0.01 0.01 0.01 0.02 0.01 0.01 0.01 0.01 0.01 0.01 0.01 0.01 0.02 0.02 0.02 0.02 0.01 0.01 0.01 0.01 0.01 0.02 0.02 0.02 0.02 0.01 0.01 0.02 0.02 0.02 0.03 0.03 0.03 0.04
0.01 0.01 0.01 0.00 0.01 0.01 0.01 0.01 0.01 0.01 0.01 0.01 0.01 0.01 0.01 0.01 0.01 0.01 0.01 0.01 0.01 0.01 0.01 0.00 0.01 0.01 0.02 0.02 0.02 0.02 0.02 0.02 0.02 0.02 0.03 0.03 0.04 0.05
0.01 0.01 0.01 0.01 0.01 0.01 0.00 0.00 0.01 0.01 0.00 0.00 0.01 0.01 0.01 0.01 0.01 0.01 0.01 0.01 0.01 0.01 0.01 0.01 0.01 0.01 0.02 0.03 0.02 0.02 0.02 0.02 0.03 0.03 0.03 0.04 0.04 0.05
0.02 0.01 0.01 0.01 0.01 0.01 0.01 0.00 0.00 0.00 0.00 0.00 0.00 0.00 0.01 0.01 0.01 0.01 0.01 0.01 0.01 0.01 0.02 0.02 0.01 0.01 0.02 0.03 0.02 0.02 0.03 0.03 0.03 0.02 0.03 0.03 0.03 0.04

GEFSNE_prec_meanprec_234.txt.gz
QPF
0.04 0.05 0.04 0.03 0.03 0.02 0.02 0.02 0.03 0.03 0.02 0.02 0.01 0.01 0.01 0.01 0.01 0.01 0.01 0.02 0.03 0.02 0.02 0.02 0.03 0.04 0.04 0.05 0.06 0.07 0.07 0.08 0.07 0.06 0.05 0.04 0.04 0.05
0.05 0.05 0.05 0.04 0.04 0.04 0.04 0.03 0.03 0.04 0.04 0.03 0.02 0.01 0.01 0.01 0.01 0.01 0.01 0.02 0.02 0.02 0.02 0.02 0.02 0.03 0.03 0.04 0.04 0.05 0.05 0.05 0.05 0.05 0.05 0.04 0.03 0.04
0.07 0.07 0.07 0.06 0.05 0.04 0.03 0.03 0.03 0.03 0.03 0.03 0.03 0.02 0.01 0.01 0.01 0.02 0.02 0.01 0.01 0.02 0.02 0.02 0.02 0.02 0.02 0.03 0.04 0.04 0.04 0.04 0.04 0.04 0.04 0.05 0.04 0.03
0.07 0.08 0.08 0.06 0.05 0.04 0.03 0.02 0.03 0.03 0.02 0.03 0.03 0.03 0.02 0.01 0.02 0.02 0.02 0.02 0.02 0.02 0.02 0.01 0.01 0.01 0.01 0.02 0.03 0.03 0.03 0.03 0.03 0.03 0.03 0.04 0.04 0.04
0.06 0.06 0.05 0.05 0.04 0.03 0.02 0.02 0.02 0.03 0.03 0.03 0.04 0.04 0.04 0.03 0.02 0.02 0.02 0.02 0.02 0.02 0.02 0.02 0.02 0.01 0.01 0.01 0.02 0.03 0.03 0.03 0.02 0.02 0.02 0.02 0.03 0.04
0.03 0.04 0.05 0.04 0.04 0.04 0.03 0.02 0.03 0.04 0.04 0.05 0.05 0.05 0.06 0.04 0.03 0.02 0.02 0.02 0.02 0.02 0.02 0.02 0.02 0.01 0.01 0.01 0.01 0.02 0.03 0.02 0.02 0.02 0.01 0.02 0.02 0.02
0.01 0.01 0.02 0.04 0.04 0.05 0.05 0.04 0.04 0.05 0.05 0.05 0.05 0.06 0.07 0.06 0.04 0.04 0.03 0.03 0.03 0.02 0.02 0.02 0.02 0.01 0.01 0.01 0.01 0.02 0.02 0.02 0.02 0.01 0.01 0.01 0.02 0.02
0.01 0.01 0.01 0.02 0.04 0.05 0.05 0.05 0.04 0.04 0.04 0.05 0.06 0.06 0.06 0.07 0.04 0.04 0.04 0.04 0.04 0.03 0.02 0.02 0.02 0.02 0.01 0.01 0.01 0.01 0.01 0.02 0.02 0.01 0.01 0.01 0.01 0.02
0.01 0.01 0.01 0.01 0.02 0.03 0.03 0.03 0.02 0.02 0.03 0.05 0.07 0.07 0.06 0.07 0.04 0.03 0.03 0.03 0.03 0.04 0.04 0.04 0.03 0.02 0.02 0.02 0.02 0.01 0.01 0.01 0.01 0.01 0.01 0.02 0.01 0.01
0.01 0.01 0.02 0.02 0.02 0.02 0.02 0.01 0.01 0.01 0.01 0.02 0.04 0.04 0.04 0.06 0.05 0.03 0.04 0.04 0.04 0.04 0.04 0.04 0.03 0.03 0.02 0.02 0.02 0.02 0.02 0.02 0.02 0.02 0.02 0.03 0.03 0.02
0.01 0.02 0.02 0.02 0.01 0.01 0.01 0.01 0.01 0.01 0.01 0.01 0.02 0.03 0.04 0.05 0.06 0.05 0.05 0.05 0.05 0.06 0.05 0.04 0.03 0.03 0.03 0.03 0.02 0.02 0.02 0.03 0.03 0.02 0.02 0.03 0.03 0.03
0.01 0.01 0.01 0.01 0.01 0.01 0.01 0.02 0.01 0.01 0.02 0.02 0.02 0.03 0.04 0.04 0.06 0.07 0.06 0.06 0.05 0.05 0.05 0.04 0.04 0.03 0.03 0.03 0.02 0.02 0.02 0.02 0.02 0.02 0.02 0.03 0.03 0.04
0.00 0.01 0.01 0.02 0.02 0.02 0.01 0.01 0.02 0.02 0.02 0.02 0.02 0.03 0.03 0.04 0.06 0.07 0.05 0.06 0.06 0.05 0.04 0.03 0.04 0.03 0.03 0.03 0.02 0.02 0.02 0.02 0.02 0.02 0.02 0.02 0.03 0.03
0.01 0.01 0.02 0.01 0.01 0.02 0.02 0.02 0.02 0.02 0.02 0.02 0.03 0.03 0.03 0.05 0.07 0.07 0.06 0.06 0.07 0.06 0.05 0.04 0.04 0.04 0.03 0.03 0.03 0.02 0.02 0.02 0.02 0.02 0.02 0.02 0.03 0.03
0.02 0.02 0.02 0.02 0.01 0.01 0.01 0.02 0.02 0.02 0.03 0.03 0.04 0.05 0.05 0.06 0.06 0.06 0.05 0.05 0.05 0.04 0.04 0.04 0.04 0.04 0.04 0.03 0.03 0.03 0.03 0.03 0.02 0.02 0.02 0.03 0.03 0.03
0.02 0.01 0.01 0.02 0.02 0.01 0.02 0.02 0.02 0.03 0.03 0.04 0.04 0.05 0.05 0.04 0.04 0.04 0.03 0.03 0.03 0.03 0.03 0.03 0.04 0.04 0.04 0.03 0.03 0.03 0.03 0.03 0.02 0.02 0.02 0.02 0.03 0.03
0.01 0.01 0.01 0.01 0.02 0.02 0.02 0.02 0.02 0.02 0.02 0.02 0.03 0.03 0.03 0.02 0.02 0.01 0.01 0.01 0.01 0.01 0.01 0.01 0.01 0.01 0.02 0.02 0.02 0.03 0.03 0.03 0.03 0.02 0.02 0.02 0.02 0.02
0.00 0.00 0.01 0.01 0.02 0.02 0.02 0.02 0.01 0.01 0.01 0.01 0.01 0.01 0.01 0.01 0.00 0.00 0.01 0.01 0.01 0.01 0.01 0.00 0.01 0.01 0.01 0.01 0.01 0.02 0.03 0.03 0.03 0.03 0.03 0.02 0.02 0.02
0.00 0.01 0.01 0.01 0.02 0.02 0.02 0.02 0.01 0.01 0.01 0.00 0.00 0.01 0.01 0.01 0.01 0.00 0.00 0.01 0.01 0.01 0.00 0.00 0.01 0.01 0.01 0.02 0.01 0.02 0.04 0.04 0.04 0.05 0.04 0.03 0.03 0.03
0.01 0.01 0.01 0.02 0.02 0.02 0.02 0.01 0.01 0.01 0.01 0.01 0.00 0.00 0.00 0.01 0.00 0.00 0.00 0.01 0.01 0.01 0.00 0.00 0.00 0.01 0.01 0.01 0.02 0.02 0.03 0.04 0.05 0.06 0.05 0.04 0.03 0.03
0.02 0.01 0.02 0.02 0.01 0.01 0.02 0.01 0.01 0.00 0.00 0.00 0.00 0.00 0.00 0.00 0.00 0.00 0.00 0.00 0.01 0.01 0.01 0.00 0.00 0.01 0.01 0.01 0.02 0.02 0.02 0.03 0.04 0.04 0.05 0.06 0.06 0.04
0.03 0.02 0.02 0.02 0.01 0.01 0.01 0.01 0.01 0.01 0.01 0.00 0.01 0.01 0.01 0.01 0.00 0.00 0.00 0.01 0.01 0.01 0.01 0.01 0.01 0.01 0.01 0.01 0.01 0.02 0.02 0.02 0.03 0.03 0.04 0.06 0.07 0.06
0.03 0.03 0.03 0.02 0.02 0.01 0.01 0.01 0.01 0.01 0.01 0.01 0.01 0.01 0.01 0.01 0.01 0.01 0.01 0.02 0.02 0.02 0.01 0.01 0.01 0.01 0.01 0.01 0.01 0.01 0.02 0.02 0.02 0.02 0.03 0.04 0.05 0.05

GEFSNE_prec_meanprec_240.txt.gz
QPF
0.04 0.04 0.04 0.04 0.05 0.05 0.05 0.05 0.05 0.04 0.04 0.04 0.04 0.03 0.03 0.03 0.02 0.02 0.02 0.01 0.00 0.00 0.00 0.00 0.01 0.01 0.02 0.03 0.02 0.03 0.03 0.04 0.05 0.06 0.06 0.05 0.05 0.05
0.05 0.05 0.04 0.04 0.04 0.05 0.05 0.06 0.06 0.06 0.05 0.05 0.06 0.04 0.03 0.02 0.01 0.02 0.03 0.01 0.01 0.01 0.00 0.01 0.01 0.01 0.01 0.02 0.03 0.03 0.03 0.03 0.05 0.06 0.07 0.06 0.05 0.05
0.07 0.06 0.05 0.05 0.05 0.06 0.06 0.06 0.07 0.07 0.06 0.06 0.06 0.05 0.04 0.04 0.03 0.03 0.03 0.03 0.02 0.01 0.01 0.01 0.02 0.02 0.01 0.01 0.02 0.02 0.03 0.04 0.04 0.04 0.06 0.07 0.06 0.05
0.06 0.07 0.06 0.06 0.07 0.07 0.07 0.08 0.07 0.07 0.07 0.07 0.06 0.06 0.06 0.05 0.04 0.04 0.03 0.02 0.03 0.01 0.01 0.01 0.02 0.02 0.02 0.01 0.01 0.01 0.02 0.03 0.03 0.03 0.04 0.06 0.06 0.05
0.05 0.05 0.07 0.08 0.07 0.06 0.06 0.06 0.07 0.06 0.06 0.07 0.05 0.04 0.04 0.05 0.04 0.03 0.03 0.04 0.02 0.01 0.01 0.02 0.02 0.02 0.02 0.02 0.02 0.02 0.02 0.02 0.02 0.02 0.03 0.04 0.05 0.05
0.05 0.06 0.07 0.08 0.08 0.09 0.09 0.09 0.08 0.08 0.06 0.07 0.05 0.04 0.04 0.04 0.04 0.05 0.04 0.05 0.04 0.03 0.02 0.02 0.02 0.02 0.02 0.01 0.01 0.02 0.02 0.02 0.03 0.03 0.03 0.03 0.04 0.05
0.04 0.04 0.04 0.05 0.05 0.06 0.06 0.07 0.08 0.09 0.08 0.07 0.06 0.05 0.04 0.04 0.04 0.05 0.06 0.06 0.05 0.05 0.05 0.03 0.03 0.03 0.02 0.01 0.01 0.01 0.02 0.02 0.03 0.03 0.03 0.03 0.03 0.04
0.04 0.03 0.03 0.02 0.02 0.03 0.03 0.04 0.06 0.08 0.09 0.10 0.08 0.05 0.05 0.06 0.06 0.06 0.06 0.06 0.04 0.04 0.05 0.06 0.06 0.05 0.04 0.03 0.02 0.01 0.02 0.02 0.03 0.03 0.03 0.02 0.02 0.03
0.05 0.04 0.03 0.02 0.03 0.03 0.03 0.03 0.04 0.04 0.05 0.07 0.07 0.05 0.05 0.05 0.06 0.06 0.06 0.05 0.04 0.04 0.04 0.05 0.06 0.06 0.05 0.05 0.04 0.03 0.02 0.02 0.03 0.03 0.03 0.02 0.01 0.01
0.04 0.03 0.03 0.03 0.03 0.03 0.03 0.04 0.04 0.03 0.03 0.03 0.05 0.06 0.05 0.05 0.06 0.06 0.06 0.05 0.04 0.04 0.04 0.04 0.05 0.05 0.04 0.04 0.04 0.04 0.03 0.03 0.03 0.03 0.03 0.02 0.02 0.01
0.03 0.02 0.03 0.02 0.02 0.02 0.03 0.03 0.05 0.04 0.03 0.03 0.03 0.04 0.03 0.04 0.06 0.06 0.06 0.05 0.04 0.04 0.05 0.04 0.04 0.04 0.04 0.03 0.03 0.03 0.03 0.02 0.02 0.02 0.03 0.02 0.02 0.02
0.02 0.02 0.02 0.02 0.02 0.02 0.02 0.02 0.03 0.04 0.03 0.02 0.02 0.02 0.02 0.02 0.04 0.06 0.06 0.05 0.04 0.04 0.04 0.04 0.04 0.04 0.05 0.04 0.03 0.03 0.02 0.02 0.02 0.02 0.03 0.04 0.04 0.03
0.02 0.01 0.01 0.01 0.01 0.01 0.01 0.01 0.02 0.03 0.03 0.02 0.02 0.02 0.02 0.03 0.04 0.04 0.05 0.05 0.05 0.04 0.04 0.03 0.03 0.04 0.05 0.05 0.03 0.02 0.02 0.03 0.03 0.03 0.03 0.04 0.04 0.03
0.04 0.03 0.02 0.01 0.01 0.01 0.01 0.01 0.02 0.02 0.03 0.02 0.02 0.03 0.03 0.04 0.05 0.06 0.05 0.06 0.06 0.06 0.06 0.05 0.05 0.05 0.04 0.04 0.03 0.02 0.02 0.02 0.02 0.03 0.03 0.04 0.04 0.03
0.03 0.04 0.03 0.02 0.02 0.02 0.01 0.01 0.02 0.02 0.02 0.02 0.02 0.02 0.03 0.04 0.06 0.06 0.05 0.07 0.07 0.06 0.05 0.05 0.04 0.04 0.04 0.04 0.03 0.02 0.02 0.02 0.02 0.03 0.03 0.03 0.03 0.03
0.01 0.02 0.02 0.02 0.02 0.02 0.02 0.02 0.02 0.02 0.02 0.02 0.02 0.02 0.02 0.04 0.08 0.09 0.07 0.05 0.06 0.05 0.04 0.03 0.02 0.02 0.03 0.03 0.03 0.02 0.02 0.03 0.03 0.03 0.03 0.03 0.03 0.03
0.01 0.01 0.02 0.02 0.03 0.03 0.02 0.02 0.02 0.02 0.02 0.02 0.02 0.02 0.02 0.04 0.07 0.07 0.06 0.04 0.04 0.03 0.02 0.02 0.02 0.03 0.03 0.03 0.02 0.02 0.02 0.02 0.02 0.03 0.03 0.03 0.03 0.02
0.02 0.02 0.02 0.02 0.02 0.02 0.02 0.02 0.02 0.02 0.02 0.02 0.02 0.02 0.02 0.03 0.04 0.04 0.04 0.04 0.03 0.02 0.02 0.02 0.02 0.03 0.03 0.03 0.02 0.02 0.02 0.02 0.02 0.02 0.02 0.03 0.03 0.02
0.01 0.02 0.02 0.01 0.02 0.02 0.02 0.02 0.02 0.02 0.02 0.02 0.01 0.02 0.02 0.02 0.02 0.03 0.03 0.03 0.03 0.02 0.02 0.02 0.02 0.02 0.02 0.02 0.03 0.03 0.03 0.03 0.02 0.02 0.02 0.03 0.03 0.02
0.01 0.01 0.01 0.01 0.02 0.03 0.03 0.03 0.02 0.02 0.01 0.02 0.02 0.02 0.02 0.02 0.02 0.02 0.02 0.03 0.03 0.03 0.03 0.02 0.02 0.02 0.02 0.03 0.03 0.03 0.04 0.04 0.03 0.03 0.03 0.03 0.03 0.03
0.01 0.01 0.01 0.01 0.02 0.03 0.03 0.03 0.02 0.02 0.02 0.02 0.02 0.01 0.01 0.02 0.02 0.02 0.02 0.03 0.03 0.03 0.03 0.03 0.03 0.02 0.03 0.03 0.04 0.04 0.05 0.05 0.05 0.04 0.04 0.05 0.04 0.04
0.01 0.01 0.01 0.01 0.01 0.03 0.04 0.03 0.03 0.02 0.03 0.02 0.02 0.02 0.02 0.02 0.02 0.02 0.02 0.02 0.02 0.02 0.02 0.02 0.02 0.02 0.02 0.03 0.04 0.06 0.06 0.06 0.05 0.05 0.04 0.04 0.04 0.05
0.01 0.01 0.01 0.01 0.02 0.02 0.03 0.02 0.02 0.02 0.02 0.03 0.03 0.02 0.02 0.02 0.03 0.03 0.03 0.03 0.02 0.02 0.02 0.02 0.02 0.02 0.02 0.03 0.03 0.04 0.05 0.05 0.05 0.06 0.06 0.05 0.04 0.05

GEFSNE_prec_meanprec_246.txt.gz
QPF
0.07 0.08 0.08 0.06 0.07 0.06 0.06 0.06 0.06 0.05 0.06 0.07 0.06 0.03 0.03 0.04 0.04 0.04 0.04 0.04 0.02 0.01 0.01 0.00 0.00 0.00 0.00 0.00 0.01 0.02 0.03 0.03 0.04 0.04 0.04 0.03 0.03 0.03
0.06 0.08 0.09 0.07 0.07 0.06 0.06 0.06 0.06 0.05 0.04 0.06 0.07 0.05 0.04 0.03 0.03 0.05 0.05 0.05 0.03 0.02 0.01 0.00 0.00 0.00 0.00 0.01 0.01 0.02 0.02 0.02 0.02 0.03 0.03 0.04 0.04 0.03
0.06 0.07 0.08 0.08 0.07 0.05 0.05 0.05 0.05 0.05 0.05 0.06 0.06 0.06 0.07 0.06 0.06 0.06 0.06 0.07 0.05 0.03 0.02 0.01 0.01 0.00 0.00 0.00 0.01 0.01 0.02 0.02 0.02 0.02 0.02 0.03 0.03 0.03
0.08 0.08 0.08 0.08 0.08 0.06 0.05 0.05 0.05 0.06 0.06 0.07 0.06 0.06 0.08 0.07 0.07 0.08 0.06 0.06 0.06 0.04 0.03 0.02 0.01 0.01 0.01 0.00 0.00 0.00 0.01 0.01 0.02 0.02 0.02 0.02 0.03 0.03
0.07 0.07 0.07 0.07 0.06 0.06 0.06 0.06 0.06 0.06 0.06 0.07 0.08 0.08 0.08 0.07 0.09 0.09 0.07 0.07 0.04 0.03 0.03 0.02 0.01 0.01 0.01 0.01 0.01 0.01 0.00 0.01 0.01 0.01 0.02 0.03 0.03 0.03
0.07 0.07 0.06 0.05 0.06 0.06 0.07 0.08 0.08 0.08 0.08 0.09 0.08 0.07 0.06 0.06 0.08 0.07 0.07 0.06 0.05 0.03 0.02 0.02 0.01 0.01 0.01 0.02 0.02 0.02 0.01 0.01 0.01 0.01 0.02 0.02 0.02 0.03
0.07 0.06 0.05 0.06 0.07 0.06 0.05 0.05 0.06 0.07 0.08 0.08 0.08 0.06 0.05 0.05 0.06 0.06 0.06 0.06 0.07 0.06 0.04 0.02 0.01 0.01 0.01 0.01 0.02 0.01 0.01 0.01 0.01 0.01 0.01 0.02 0.02 0.03
0.08 0.07 0.06 0.05 0.05 0.04 0.04 0.05 0.05 0.06 0.07 0.08 0.08 0.07 0.06 0.05 0.06 0.07 0.06 0.06 0.07 0.06 0.05 0.04 0.03 0.03 0.02 0.02 0.02 0.02 0.02 0.02 0.02 0.02 0.02 0.03 0.03 0.03
0.07 0.07 0.06 0.04 0.04 0.04 0.05 0.05 0.04 0.04 0.06 0.09 0.09 0.08 0.08 0.07 0.08 0.08 0.08 0.07 0.06 0.05 0.06 0.05 0.04 0.03 0.03 0.02 0.03 0.02 0.02 0.02 0.02 0.02 0.02 0.02 0.02 0.03
0.06 0.07 0.07 0.04 0.04 0.04 0.04 0.05 0.05 0.05 0.05 0.05 0.05 0.08 0.08 0.09 0.09 0.09 0.07 0.05 0.04 0.04 0.05 0.04 0.04 0.04 0.03 0.03 0.03 0.03 0.03 0.03 0.03 0.03 0.03 0.02 0.02 0.02
0.05 0.05 0.05 0.05 0.03 0.02 0.03 0.05 0.05 0.04 0.04 0.04 0.04 0.05 0.05 0.06 0.08 0.07 0.06 0.05 0.04 0.04 0.05 0.04 0.04 0.04 0.04 0.04 0.03 0.02 0.02 0.03 0.03 0.03 0.02 0.02 0.02 0.02
0.05 0.04 0.03 0.02 0.02 0.01 0.02 0.03 0.04 0.04 0.04 0.04 0.04 0.04 0.03 0.04 0.05 0.06 0.06 0.06 0.04 0.05 0.04 0.04 0.04 0.04 0.04 0.05 0.04 0.03 0.02 0.02 0.03 0.03 0.03 0.02 0.02 0.02
0.06 0.05 0.03 0.02 0.02 0.02 0.02 0.03 0.04 0.03 0.04 0.05 0.05 0.05 0.04 0.04 0.05 0.07 0.06 0.05 0.04 0.04 0.03 0.04 0.05 0.04 0.04 0.05 0.05 0.05 0.03 0.02 0.02 0.02 0.03 0.03 0.03 0.03
0.04 0.04 0.03 0.02 0.02 0.02 0.02 0.02 0.03 0.03 0.04 0.04 0.03 0.03 0.04 0.03 0.03 0.04 0.05 0.04 0.03 0.03 0.03 0.04 0.04 0.03 0.03 0.04 0.04 0.04 0.03 0.02 0.02 0.02 0.03 0.04 0.04 0.04
0.03 0.03 0.03 0.02 0.01 0.01 0.02 0.02 0.03 0.03 0.04 0.03 0.03 0.03 0.02 0.02 0.02 0.02 0.02 0.03 0.03 0.03 0.04 0.05 0.06 0.05 0.03 0.03 0.03 0.03 0.03 0.02 0.02 0.03 0.03 0.03 0.04 0.04
0.03 0.01 0.01 0.01 0.01 0.02 0.02 0.02 0.02 0.02 0.02 0.03 0.03 0.03 0.02 0.02 0.01 0.01 0.01 0.02 0.03 0.03 0.03 0.04 0.04 0.04 0.03 0.03 0.03 0.02 0.02 0.02 0.02 0.02 0.03 0.03 0.03 0.03
0.03 0.02 0.02 0.02 0.02 0.01 0.01 0.01 0.01 0.01 0.02 0.02 0.02 0.02 0.01 0.01 0.01 0.02 0.02 0.02 0.02 0.02 0.03 0.04 0.04 0.04 0.04 0.04 0.04 0.02 0.02 0.01 0.01 0.01 0.02 0.03 0.03 0.03
0.02 0.02 0.02 0.02 0.02 0.02 0.02 0.01 0.01 0.01 0.03 0.04 0.03 0.01 0.01 0.01 0.01 0.02 0.03 0.03 0.02 0.02 0.02 0.03 0.03 0.02 0.03 0.04 0.04 0.02 0.01 0.01 0.01 0.02 0.02 0.02 0.03 0.03
0.02 0.01 0.02 0.02 0.02 0.03 0.03 0.02 0.02 0.03 0.05 0.05 0.04 0.02 0.02 0.02 0.01 0.02 0.04 0.03 0.02 0.02 0.02 0.02 0.02 0.02 0.02 0.03 0.04 0.03 0.01 0.01 0.02 0.02 0.02 0.03 0.03 0.03
0.01 0.01 0.01 0.01 0.01 0.02 0.03 0.04 0.04 0.04 0.05 0.05 0.04 0.03 0.02 0.02 0.02 0.02 0.04 0.03 0.03 0.02 0.02 0.03 0.03 0.02 0.02 0.02 0.04 0.04 0.02 0.01 0.02 0.02 0.02 0.02 0.03 0.03
0.01 0.01 0.01 0.01 0.01 0.02 0.03 0.03 0.04 0.04 0.04 0.04 0.03 0.02 0.02 0.01 0.01 0.02 0.03 0.04 0.04 0.03 0.03 0.03 0.03 0.02 0.02 0.03 0.04 0.05 0.04 0.03 0.02 0.02 0.02 0.02 0.02 0.03
0.01 0.00 0.00 0.01 0.01 0.02 0.03 0.03 0.03 0.03 0.03 0.03 0.02 0.03 0.02 0.02 0.01 0.02 0.03 0.04 0.04 0.04 0.03 0.03 0.03 0.03 0.03 0.03 0.03 0.05 0.05 0.04 0.04 0.03 0.02 0.02 0.02 0.02
0.00 0.00 0.00 0.01 0.01 0.02 0.02 0.02 0.02 0.02 0.03 0.02 0.01 0.02 0.02 0.02 0.02 0.02 0.03 0.04 0.04 0.04 0.04 0.05 0.04 0.05 0.04 0.04 0.03 0.04 0.05 0.05 0.05 0.03 0.02 0.02 0.02 0.02

GEFSNE_prec_meanprec_252.txt.gz
QPF
0.04 0.06 0.08 0.07 0.06 0.05 0.05 0.04 0.03 0.03 0.03 0.02 0.02 0.02 0.01 0.02 0.04 0.04 0.03 0.03 0.03 0.03 0.03 0.02 0.02 0.02 0.02 0.01 0.02 0.02 0.02 0.03 0.05 0.08 0.07 0.04 0.04 0.04
0.02 0.03 0.04 0.05 0.05 0.05 0.04 0.04 0.03 0.03 0.02 0.01 0.02 0.02 0.02 0.02 0.03 0.02 0.02 0.03 0.03 0.03 0.03 0.02 0.02 0.02 0.02 0.02 0.02 0.02 0.01 0.01 0.01 0.03 0.07 0.07 0.04 0.03
0.02 0.02 0.02 0.03 0.05 0.05 0.04 0.03 0.03 0.03 0.02 0.02 0.01 0.02 0.03 0.04 0.04 0.03 0.02 0.02 0.02 0.04 0.04 0.03 0.03 0.03 0.03 0.03 0.03 0.04 0.03 0.02 0.02 0.03 0.03 0.05 0.05 0.04
0.02 0.02 0.02 0.03 0.04 0.05 0.05 0.04 0.03 0.03 0.03 0.02 0.02 0.03 0.04 0.05 0.05 0.05 0.04 0.04 0.05 0.05 0.05 0.04 0.03 0.02 0.02 0.02 0.02 0.03 0.03 0.02 0.02 0.03 0.03 0.02 0.02 0.03
0.03 0.03 0.04 0.04 0.04 0.04 0.05 0.05 0.03 0.02 0.03 0.03 0.03 0.04 0.05 0.06 0.06 0.07 0.06 0.06 0.05 0.04 0.04 0.03 0.03 0.02 0.02 0.02 0.02 0.02 0.02 0.02 0.01 0.01 0.02 0.02 0.02 0.02
0.03 0.03 0.03 0.03 0.02 0.03 0.02 0.02 0.03 0.03 0.02 0.02 0.02 0.02 0.03 0.04 0.04 0.05 0.05 0.03 0.03 0.03 0.04 0.03 0.03 0.03 0.02 0.02 0.02 0.02 0.02 0.02 0.02 0.01 0.01 0.01 0.02 0.02
0.03 0.03 0.03 0.03 0.03 0.03 0.02 0.02 0.02 0.02 0.02 0.03 0.03 0.02 0.02 0.03 0.02 0.04 0.07 0.05 0.03 0.04 0.05 0.04 0.04 0.03 0.03 0.02 0.02 0.02 0.02 0.02 0.02 0.02 0.01 0.01 0.01 0.01
0.02 0.02 0.03 0.04 0.04 0.03 0.02 0.02 0.02 0.02 0.02 0.03 0.03 0.03 0.02 0.03 0.04 0.06 0.06 0.06 0.07 0.09 0.08 0.05 0.05 0.05 0.04 0.03 0.02 0.02 0.02 0.02 0.02 0.02 0.02 0.02 0.02 0.02
0.02 0.02 0.03 0.04 0.04 0.03 0.02 0.02 0.02 0.02 0.02 0.03 0.03 0.03 0.02 0.03 0.06 0.07 0.09 0.09 0.06 0.06 0.07 0.06 0.05 0.05 0.05 0.04 0.03 0.03 0.02 0.02 0.02 0.02 0.02 0.03 0.02 0.02
0.02 0.02 0.03 0.03 0.03 0.03 0.02 0.02 0.01 0.01 0.02 0.03 0.03 0.02 0.02 0.03 0.04 0.06 0.08 0.06 0.03 0.03 0.03 0.04 0.04 0.05 0.05 0.04 0.04 0.03 0.03 0.02 0.02 0.02 0.02 0.02 0.02 0.02
0.03 0.03 0.04 0.03 0.03 0.02 0.02 0.01 0.01 0.01 0.02 0.03 0.02 0.02 0.01 0.02 0.03 0.04 0.07 0.07 0.04 0.03 0.03 0.03 0.03 0.05 0.06 0.04 0.03 0.03 0.03 0.03 0.03 0.02 0.02 0.02 0.02 0.02
0.02 0.02 0.03 0.03 0.03 0.03 0.02 0.01 0.01 0.01 0.02 0.02 0.02 0.02 0.02 0.02 0.02 0.03 0.04 0.05 0.03 0.02 0.02 0.03 0.02 0.02 0.04 0.03 0.03 0.03 0.03 0.02 0.02 0.02 0.02 0.02 0.02 0.02
0.01 0.02 0.02 0.02 0.02 0.02 0.02 0.02 0.02 0.02 0.02 0.03 0.03 0.03 0.03 0.02 0.02 0.02 0.02 0.03 0.03 0.02 0.02 0.02 0.01 0.02 0.02 0.02 0.02 0.02 0.02 0.01 0.01 0.01 0.01 0.01 0.01 0.01
0.01 0.01 0.01 0.02 0.02 0.02 0.02 0.02 0.02 0.03 0.03 0.04 0.04 0.03 0.03 0.02 0.02 0.02 0.02 0.02 0.02 0.02 0.02 0.01 0.01 0.02 0.02 0.02 0.02 0.01 0.01 0.01 0.00 0.00 0.01 0.01 0.01 0.02
0.01 0.01 0.01 0.01 0.02 0.03 0.03 0.02 0.02 0.03 0.03 0.03 0.03 0.04 0.03 0.02 0.01 0.01 0.01 0.01 0.01 0.01 0.01 0.01 0.01 0.02 0.02 0.02 0.02 0.01 0.01 0.01 0.01 0.00 0.00 0.00 0.00 0.01
0.00 0.01 0.01 0.01 0.02 0.02 0.03 0.03 0.03 0.03 0.02 0.01 0.01 0.02 0.01 0.01 0.00 0.00 0.01 0.00 0.00 0.00 0.01 0.01 0.01 0.02 0.03 0.04 0.02 0.02 0.02 0.02 0.01 0.01 0.01 0.01 0.00 0.01
0.01 0.01 0.01 0.02 0.02 0.02 0.02 0.02 0.02 0.01 0.01 0.01 0.01 0.01 0.01 0.01 0.01 0.00 0.01 0.01 0.01 0.01 0.01 0.01 0.01 0.02 0.03 0.04 0.04 0.03 0.03 0.03 0.02 0.02 0.02 0.01 0.01 0.01
0.01 0.01 0.01 0.02 0.01 0.01 0.01 0.01 0.01 0.01 0.00 0.01 0.01 0.01 0.01 0.01 0.01 0.01 0.01 0.01 0.01 0.01 0.01 0.01 0.01 0.02 0.02 0.02 0.02 0.02 0.02 0.01 0.02 0.02 0.02 0.02 0.01 0.01
0.01 0.01 0.01 0.01 0.01 0.01 0.01 0.01 0.01 0.00 0.01 0.01 0.01 0.01 0.01 0.01 0.01 0.01 0.01 0.01 0.01 0.01 0.00 0.01 0.01 0.01 0.02 0.02 0.01 0.01 0.00 0.00 0.01 0.01 0.01 0.02 0.02 0.01
0.01 0.01 0.01 0.01 0.01 0.01 0.01 0.01 0.00 0.01 0.01 0.01 0.01 0.01 0.01 0.01 0.01 0.01 0.01 0.02 0.02 0.01 0.01 0.01 0.01 0.01 0.01 0.02 0.01 0.01 0.00 0.00 0.00 0.01 0.01 0.01 0.01 0.01
0.01 0.01 0.01 0.01 0.01 0.01 0.00 0.00 0.00 0.01 0.01 0.01 0.01 0.00 0.00 0.01 0.01 0.01 0.01 0.02 0.02 0.01 0.01 0.01 0.01 0.01 0.02 0.02 0.01 0.00 0.01 0.01 0.01 0.01 0.01 0.01 0.01 0.01
0.02 0.01 0.01 0.01 0.01 0.00 0.01 0.00 0.00 0.00 0.00 0.01 0.01 0.01 0.01 0.01 0.01 0.01 0.01 0.02 0.01 0.01 0.01 0.01 0.01 0.01 0.02 0.02 0.01 0.00 0.01 0.01 0.01 0.01 0.01 0.01 0.01 0.01
0.01 0.01 0.01 0.01 0.01 0.01 0.00 0.00 0.00 0.00 0.00 0.01 0.01 0.01 0.01 0.01 0.01 0.01 0.01 0.01 0.01 0.01 0.01 0.02 0.02 0.02 0.02 0.01 0.01 0.00 0.01 0.01 0.02 0.02 0.01 0.01 0.01 0.01